Location: Austin
(30.3000°N, 97.7500°W)
Time: 03:17:15
(UTC-05:00)

Cosmos 1833 Rocket - Pass Details

Date: 01 October 2024
Orbit: 831 x 840 km, 71.0° (Epoch: 06 October)

Event Time Altitude Azimuth Distance (km) Brightness Sun altitude
Rises 20:50:59 0° 182° (S) 3,373 5.8 -21.4°
Reaches altitude 10° 20:53:30 10° 175° (S) 2,443 5.0 -21.9°
Enters shadow 20:56:20 28° 157° (SSE) 1,524 3.7 -22.5°
